Location: Hope
(40.9110°N, 74.9680°W)
Time: 13:57:07
(UTC-05:00)

FORTE - Pass Details

Date: 08 December 2021
Orbit: 785 x 822 km, 70.0° (Epoch: 23 January)

Event Time Altitude Azimuth Distance (km) Brightness Sun altitude
Rises 05:55:46 0° 223° (SW) 3,264 10.0 -14.0°
Reaches altitude 10° 05:58:16 10° 230° (SW) 2,342 9.2 -13.5°
Maximum altitude 06:03:20 42° 301° (WNW) 1,119 7.4 -12.6°
Drops below altitude 10° 06:08:27 10° 12° (NNE) 2,372 9.5 -11.7°
Sets 06:11:01 0° 20° (NNE) 3,311 10.3 -11.3°
